| time (UTC) | temp C | wind direction | speed KPH | gust KPH | rain 1hr cm | rain 24hr cm | rain mn cm | humidity % | barometer mb |
| 20260504150741 | 21 | 180 | 3.2 | 6.4 | 0.00 | 0.00 | 0.00 | 58 | 1054.5 |
| 20260504140940 | 18 | 82 | 0.0 | 1.6 | 0.00 | 0.00 | 0.00 | 68 | 1055.3 |
| 20260504110255 | 13 | 175 | 0.0 | 3.2 | 0.00 | 0.00 | 0.00 | 82 | 1055.8 |
| 20260504100140 | 12 | 157 | 0.0 | 0.0 | 0.00 | 0.00 | 0.00 | 86 | 1056.3 |
| 20260504081141 | 15 | 47 | 3.2 | 4.8 | 0.00 | 0.00 | 0.00 | 72 | 1057.3 |
| 20260504080240 | 16 | 337 | 0.0 | 0.0 | 0.00 | 0.00 | 0.00 | 68 | 1057.2 |
| 20260504070240 | 15 | 306 | 9.7 | 16.1 | 0.00 | 0.00 | 0.00 | 66 | 1057.6 |
| 20260504060241 | 16 | 225 | 0.0 | 4.8 | 0.00 | 0.00 | 0.00 | 65 | 1055.7 |
| 20260504060139 | 16 | 212 | 3.2 | 4.8 | 0.00 | 0.00 | 0.00 | 65 | 1055.7 |
| 20260504050339 | 16 | 150 | 0.0 | 3.2 | 0.00 | 0.00 | 0.00 | 61 | 1055.8 |
| 20260504045352 | 15 | 177 | 3.2 | 8.0 | 0.00 | 0.00 | 0.00 | 60 | 1056.0 |
| 20260504044340 | 15 | 51 | 1.6 | 4.8 | 0.00 | 0.00 | 0.00 | 59 | 1056.2 |
| 20260504043437 | 15 | 92 | 0.0 | 3.2 | 0.00 | 0.00 | 0.00 | 58 | 1056.3 |
| 20260504043337 | 15 | 131 | 1.6 | 6.4 | 0.00 | 0.00 | 0.00 | 58 | 1056.3 |
| 20260504042340 | 16 | 183 | 0.0 | 3.2 | 0.00 | 0.00 | 0.00 | 58 | 1056.5 |
| 20260504042239 | 16 | 121 | 1.6 | 6.4 | 0.00 | 0.00 | 0.00 | 57 | 1056.5 |
| 20260504041238 | 15 | 164 | 1.6 | 6.4 | 0.00 | 0.00 | 0.00 | 57 | 1056.6 |
| 20260504041139 | 15 | 183 | 3.2 | 6.4 | 0.00 | 0.00 | 0.00 | 57 | 1056.7 |
| 20260504041055 | 15 | 148 | 3.2 | 4.8 | 0.00 | 0.00 | 0.00 | 58 | 1056.7 |
| 20260504040056 | 15 | 234 | 3.2 | 4.8 | 0.00 | 0.00 | 0.00 | 56 | 1056.6 |
| 20260504035154 | 15 | 219 | 1.6 | 3.2 | 0.00 | 0.00 | 0.00 | 55 | 1056.6 |
| 20260504035038 | 15 | 196 | 1.6 | 6.4 | 0.00 | 0.00 | 0.00 | 56 | 1056.7 |
| 20260504034038 | 15 | 180 | 3.2 | 9.7 | 0.00 | 0.00 | 0.00 | 55 | 1056.6 |
| 20260504033037 | 16 | 157 | 0.0 | 3.2 | 0.00 | 0.00 | 0.00 | 54 | 1056.5 |
| 20260504032040 | 16 | 163 | 3.2 | 6.4 | 0.00 | 0.00 | 0.00 | 55 | 1056.7 |
| 20260504031137 | 16 | 168 | 0.0 | 1.6 | 0.00 | 0.00 | 0.00 | 54 | 1056.9 |
| 20260504030138 | 16 | 156 | 1.6 | 3.2 | 0.00 | 0.00 | 0.00 | 53 | 1057.0 |
| 20260504025137 | 16 | 181 | 4.8 | 8.0 | 0.00 | 0.00 | 0.00 | 53 | 1057.0 |
| 20260504025039 | 16 | 165 | 3.2 | 6.4 | 0.00 | 0.00 | 0.00 | 52 | 1056.9 |
| 20260504024137 | 16 | 86 | 0.0 | 8.0 | 0.00 | 0.00 | 0.00 | 51 | 1057.1 |
| 20260504024040 | 16 | 116 | 1.6 | 3.2 | 0.00 | 0.00 | 0.00 | 52 | 1057.1 |
| 20260504023138 | 16 | 123 | 3.2 | 6.4 | 0.00 | 0.00 | 0.00 | 51 | 1057.3 |
| 20260504021237 | 16 | 176 | 1.6 | 6.4 | 0.00 | 0.00 | 0.00 | 51 | 1056.9 |
| 20260504021138 | 16 | 163 | 4.8 | 8.0 | 0.00 | 0.00 | 0.00 | 50 | 1056.9 |
| 20260504020037 | 16 | 74 | 1.6 | 8.0 | 0.00 | 0.00 | 0.00 | 50 | 1056.8 |
| 20260504015037 | 16 | 128 | 3.2 | 6.4 | 0.00 | 0.00 | 0.00 | 50 | 1056.8 |
| 20260504013039 | 16 | 139 | 1.6 | 3.2 | 0.00 | 0.00 | 0.00 | 49 | 1056.9 |
| 20260504012037 | 17 | 170 | 1.6 | 6.4 | 0.00 | 0.00 | 0.00 | 49 | 1057.0 |
| 20260504011040 | 17 | 115 | 3.2 | 6.4 | 0.00 | 0.00 | 0.00 | 47 | 1057.1 |
| 20260504010040 | 17 | 104 | 0.0 | 3.2 | 0.00 | 0.00 | 0.00 | 47 | 1057.1 |
| 20260504004039 | 18 | 157 | 0.0 | 1.6 | 0.00 | 0.00 | 0.00 | 45 | 1056.9 |
| 20260504002940 | 18 | 101 | 1.6 | 6.4 | 0.00 | 0.00 | 0.00 | 44 | 1057.2 |
| 20260504001937 | 19 | 183 | 0.0 | 3.2 | 0.00 | 0.00 | 0.00 | 43 | 1057.2 |
| 20260504001837 | 19 | 264 | 1.6 | 6.4 | 0.00 | 0.00 | 0.00 | 43 | 1057.3 |
| 20260504000838 | 20 | 67 | 0.0 | 1.6 | 0.00 | 0.00 | 0.00 | 41 | 1057.3 |
| 20260503235839 | 20 | 179 | 3.2 | 12.9 | 0.00 | 0.00 | 0.00 | 42 | 1057.2 |
| 20260503234838 | 20 | 128 | 1.6 | 6.4 | 0.00 | 0.00 | 0.00 | 41 | 1057.3 |
| 20260503233937 | 20 | 206 | 3.2 | 11.3 | 0.00 | 0.00 | 0.00 | 41 | 1057.3 |
| 20260503232937 | 20 | 219 | 4.8 | 11.3 | 0.00 | 0.00 | 0.00 | 40 | 1057.3 |
| 20260503231940 | 20 | 165 | 4.8 | 8.0 | 0.00 | 0.00 | 0.00 | 41 | 1057.3 |
| 20260503230939 | 20 | 158 | 3.2 | 8.0 | 0.00 | 0.00 | 0.00 | 40 | 1057.4 |
| 20260503225938 | 20 | 134 | 3.2 | 12.9 | 0.00 | 0.00 | 0.00 | 41 | 1057.2 |
| 20260503225839 | 20 | 248 | 4.8 | 11.3 | 0.00 | 0.00 | 0.00 | 40 | 1057.2 |
| 20260503225739 | 20 | 161 | 4.8 | 12.9 | 0.00 | 0.00 | 0.00 | 40 | 1057.2 |
| 20260503225637 | 20 | 158 | 1.6 | 9.7 | 0.00 | 0.00 | 0.00 | 40 | 1057.3 |
| 20260503224654 | 20 | 192 | 8.0 | 16.1 | 0.00 | 0.00 | 0.00 | 40 | 1057.2 |
| 20260503223738 | 20 | 274 | 1.6 | 4.8 | 0.00 | 0.00 | 0.00 | 41 | 1057.3 |
| 20260503221757 | 20 | 225 | 0.0 | 4.8 | 0.00 | 0.00 | 0.00 | 40 | 1057.5 |
| 20260503221637 | 20 | 192 | 6.4 | 17.7 | 0.00 | 0.00 | 0.00 | 41 | 1057.4 |
| 20260503215738 | 20 | 166 | 4.8 | 11.3 | 0.00 | 0.00 | 0.00 | 40 | 1057.5 |
| 20260503213736 | 20 | 54 | 3.2 | 9.7 | 0.00 | 0.00 | 0.00 | 41 | 1057.9 |
| 20260503213637 | 20 | 82 | 1.6 | 4.8 | 0.00 | 0.00 | 0.00 | 41 | 1057.9 |
| 20260503212639 | 20 | 174 | 3.2 | 9.7 | 0.00 | 0.00 | 0.00 | 42 | 1058.1 |
| 20260503211638 | 20 | 177 | 3.2 | 11.3 | 0.00 | 0.00 | 0.00 | 41 | 1058.5 |
| 20260503210639 | 20 | 186 | 6.4 | 19.3 | 0.00 | 0.00 | 0.00 | 41 | 1058.8 |
| 20260503204640 | 20 | 210 | 3.2 | 9.7 | 0.00 | 0.00 | 0.00 | 44 | 1059.4 |
| 20260503204537 | 20 | 297 | 4.8 | 11.3 | 0.00 | 0.00 | 0.00 | 43 | 1059.4 |
| 20260503203538 | 19 | 200 | 6.4 | 12.9 | 0.00 | 0.00 | 0.00 | 44 | 1059.5 |
| 20260503201637 | 19 | 173 | 6.4 | 12.9 | 0.00 | 0.00 | 0.00 | 45 | 1059.9 |
| 20260503195737 | 18 | 184 | 4.8 | 11.3 | 0.00 | 0.00 | 0.00 | 45 | 1060.6 |
| 20260503194752 | 18 | 244 | 3.2 | 6.4 | 0.00 | 0.00 | 0.00 | 46 | 1060.9 |
| 20260503193837 | 18 | 228 | 14.5 | 20.9 | 0.00 | 0.00 | 0.00 | 46 | 1061.2 |
| 20260503192840 | 18 | 173 | 6.4 | 14.5 | 0.00 | 0.00 | 0.00 | 47 | 1061.4 |
| 20260503191855 | 18 | 201 | 6.4 | 9.7 | 0.00 | 0.00 | 0.00 | 47 | 1061.7 |
| 20260503190937 | 18 | 206 | 6.4 | 14.5 | 0.00 | 0.00 | 0.00 | 47 | 1061.9 |
| 20260503185953 | 18 | 229 | 6.4 | 12.9 | 0.00 | 0.00 | 0.00 | 47 | 1062.1 |
| 20260503185038 | 18 | 173 | 4.8 | 12.9 | 0.00 | 0.00 | 0.00 | 49 | 1062.5 |
| 20260503184955 | 18 | 192 | 1.6 | 4.8 | 0.00 | 0.00 | 0.00 | 48 | 1062.4 |
| 20260503184040 | 17 | 228 | 4.8 | 9.7 | 0.00 | 0.00 | 0.00 | 49 | 1062.6 |
| 20260503183937 | 17 | 193 | 3.2 | 6.4 | 0.00 | 0.00 | 0.00 | 49 | 1062.7 |
| 20260503183854 | 17 | 224 | 4.8 | 8.0 | 0.00 | 0.00 | 0.00 | 49 | 1062.7 |
| 20260503181938 | 17 | 171 | 6.4 | 14.5 | 0.00 | 0.00 | 0.00 | 49 | 1063.4 |
| 20260503181839 | 17 | 230 | 11.3 | 14.5 | 0.00 | 0.00 | 0.00 | 49 | 1063.5 |
| 20260503180854 | 17 | 213 | 1.6 | 6.4 | 0.00 | 0.00 | 0.00 | 50 | 1063.6 |
| 20260503174939 | 16 | 228 | 6.4 | 9.7 | 0.00 | 0.00 | 0.00 | 50 | 1064.2 |
| 20260503174037 | 17 | 209 | 8.0 | 29.0 | 0.00 | 0.00 | 0.00 | 51 | 1064.2 |
| 20260503173054 | 16 | 208 | 6.4 | 25.7 | 0.00 | 0.00 | 0.00 | 53 | 1064.6 |
| 20260503172038 | 16 | 247 | 12.9 | 24.1 | 0.00 | 0.00 | 0.00 | 52 | 1064.6 |
| 20260503171039 | 16 | 98 | 1.6 | 3.2 | 0.00 | 0.00 | 0.00 | 52 | 1064.7 |
| 20260503170136 | 16 | 223 | 3.2 | 9.7 | 0.00 | 0.00 | 0.00 | 53 | 1064.8 |